Aeroporto :
LOGIN :

Iscrizione | Disclaimer

   EN    FR    IT 

 










Sommario :    VFR   VFR Marginale   IFR   IFR Intensivo   IFR Molto Intensivo
Visibilità : 
Base nubi : 
>= 8 km
>= 3000ft
5 / 8 km
1000 / 3000 ft
1500m / 5 km
500 / 1000 ft
800 / 1500m
200 / 500 ft
< 800m
< 200 ft
Simboli :   Temporali  Nebbia  Neve Forte  Precipitazioni Forti  Vento > 20 kt
SIGMETs :   Varie  Temporali  Ghiacco  Turbolenza  Onda orograficha  Ceneri Vulcaniche






- Altitudine del aeroporto : 416 ft
- Codice IATA : OVD


LEAS - Asturias

ULTIMO METAR :
  • 280200Z AUTO VRB02KT CAVOK 15/14 Q1022

METARs OBSOLETI :
  • 280130Z AUTO VRB02KT CAVOK 15/13 Q1022
  • 280100Z AUTO 15004KT CAVOK 16/14 Q1022
  • 280030Z AUTO VRB02KT CAVOK 16/14 Q1023
  • 280000Z AUTO 15003KT 110V190 CAVOK 15/14 Q1023
  • 272330Z AUTO 16004KT 130V190 CAVOK 16/14 Q1023

TAF TAF LEAS
Valido dal 27 a 21 ore il 28 a 21 ore UTC


272000Z 2721/2821 09009KT CAVOK TX25/2812Z TN13/2806Z



MetMap, La meteo Aeronautica in un colpo d'occhio ! - Copyright ORBIFLY Dicembre 2007 - Disclaimer

ORBIFLY MET'MAP TEAM :

Programmazione e sviluppo : Alexandra Zaïnal
Concezione : Baudouin d'Aumeries
Aiuto per la programmazione : Marc-Olivier Méhu
Supporto tecnico e logistico : Manuel Goepfert
Aiuto per la traduzione : Arnaldo La Scala

Contatto : metmap@orbifly.com




FONTI E CREDITI :

   NOAA